TUP961 ULAA-ULLI

Flight info

Callsign TUP961
Flight time N/A
Altitude 32000
Route MAKOG3K MAKOG T821 ROGID M856 GIKUR T458 BEPOL BEPOL1A
Aircraft T204/M-SDE2E3FGHIJ3J4J7RWXY/LB1

Departure

Time 2026-04-24 15:24
Airport Talagi Airport (ULAA)

Arrival

Time N/A
Airport Pulkovo Airport (ULLI)
Time Latitude Longitude Altitude Speed Heading
2026-04-24 14:55 64.59808 40.70604 71 ft 0 kts 186°
2026-04-24 15:10 64.59805 40.70604 71 ft 0 kts 186°
2026-04-24 15:10 64.59802 40.70602 71 ft 0 kts 186°
2026-04-24 15:10 64.59791 40.70602 71 ft 2 kts 175°
2026-04-24 15:11 64.59781 40.70609 71 ft 1 kts 156°
2026-04-24 15:11 64.59774 40.70622 71 ft 1 kts 128°
2026-04-24 15:11 64.59767 40.70657 71 ft 4 kts 108°
2026-04-24 15:11 64.59759 40.70759 71 ft 9 kts 98°
2026-04-24 15:12 64.59753 40.70941 71 ft 9 kts 79°
2026-04-24 15:12 64.59845 40.71115 71 ft 10 kts 85°
2026-04-24 15:12 64.59834 40.71331 71 ft 16 kts 97°
2026-04-24 15:13 64.59818 40.71661 71 ft 23 kts 97°
2026-04-24 15:13 64.59804 40.71952 71 ft 13 kts 97°
2026-04-24 15:13 64.59802 40.71983 71 ft 0 kts 97°
2026-04-24 15:14 64.59804 40.71959 71 ft 7 kts 97°
2026-04-24 15:14 64.59792 40.71748 71 ft 10 kts 41°
2026-04-24 15:14 64.59789 40.71739 71 ft 0 kts 12°
2026-04-24 15:14 64.59790 40.71740 71 ft 0 kts
2026-04-24 15:15 64.59809 40.71723 71 ft 6 kts 315°
2026-04-24 15:15 64.59825 40.71532 71 ft 17 kts 277°
2026-04-24 15:15 64.59841 40.71315 71 ft 8 kts 301°
2026-04-24 15:15 64.59900 40.71298 71 ft 8 kts
2026-04-24 15:16 64.59920 40.71303 71 ft 0 kts
2026-04-24 15:16 64.59921 40.71303 71 ft 0 kts
2026-04-24 15:19 64.59923 40.71304 71 ft 1 kts
2026-04-24 15:19 64.59940 40.71308 71 ft 3 kts
2026-04-24 15:20 64.59968 40.71315 71 ft 4 kts
2026-04-24 15:20 64.60005 40.71325 71 ft 5 kts
2026-04-24 15:20 64.60037 40.71370 71 ft 5 kts 58°
2026-04-24 15:20 64.60042 40.71465 71 ft 5 kts 94°
2026-04-24 15:21 64.60039 40.71571 71 ft 7 kts 95°
2026-04-24 15:21 64.60033 40.71719 71 ft 11 kts 95°
2026-04-24 15:21 64.60022 40.71938 71 ft 15 kts 97°
2026-04-24 15:21 64.60007 40.72229 71 ft 19 kts 97°
2026-04-24 15:22 64.59987 40.72583 71 ft 23 kts 98°
2026-04-24 15:22 64.59965 40.72996 71 ft 27 kts 97°
2026-04-24 15:22 64.59940 40.73477 71 ft 31 kts 97°
2026-04-24 15:23 64.59896 40.74165 71 ft 3 kts 37°
2026-04-24 15:23 64.59917 40.74069 71 ft 0 kts 272°
2026-04-24 15:23 64.59917 40.74032 71 ft 18 kts 272°
2026-04-24 15:24 64.60294 40.67806 906 ft 191 kts 281°
2026-04-24 15:25 64.60787 40.62993 2350 ft 204 kts 289°
2026-04-24 15:25 64.62490 40.57710 5049 ft 174 kts 332°